Terug naar catalogus

NAVSTAR 27

USA 84

ActiefNavigatieMEO
NORAD 22108·PAYLOAD·🇺🇸 United States

Gelanceerd Sep 9, 1992 vanaf Cape Canaveral Space Force Station

Loading…

Volgende Passages (komende 24 uur)

TLE

VersSource: Space-Track

Epoch: Sep 13, 2026, 04:22 UTC

1 22108U 92058A   26256.18253879  .00000010  00000-0  00000-0 0  9992
2 22108  54.6682 163.8829 0017876  47.8028 312.3928  1.87561029244671

Volg NAVSTAR 27 in realtime met AllMySat

Download on the App Store